Year,Month,Day,Hour,Minute,Value (Times are PST for temperature in C)
2016,08,23,00,00,13.80
2016,08,23,00,01,13.80
2016,08,23,00,02,13.80
2016,08,23,00,03,13.80
2016,08,23,00,04,13.80
2016,08,23,00,05,13.70
2016,08,23,00,06,13.70
2016,08,23,00,07,13.70
2016,08,23,00,08,13.70
2016,08,23,00,09,13.70
2016,08,23,00,10,13.60
2016,08,23,00,11,13.60
2016,08,23,00,12,13.60
2016,08,23,00,13,13.60
2016,08,23,00,14,13.50
2016,08,23,00,15,13.50
2016,08,23,00,16,13.50
2016,08,23,00,17,13.40
2016,08,23,00,18,13.40
2016,08,23,00,19,13.40
2016,08,23,00,20,13.40
2016,08,23,00,21,13.40
2016,08,23,00,22,13.30
2016,08,23,00,23,13.30
2016,08,23,00,24,13.30
2016,08,23,00,25,13.30
2016,08,23,00,26,13.30
2016,08,23,00,27,13.30
2016,08,23,00,28,13.30
2016,08,23,00,29,13.30
2016,08,23,00,30,13.30
2016,08,23,00,31,13.30
2016,08,23,00,32,13.20
2016,08,23,00,33,13.20
2016,08,23,00,34,13.20
2016,08,23,00,35,13.20
2016,08,23,00,36,13.20
2016,08,23,00,37,13.20
2016,08,23,00,38,13.20
2016,08,23,00,39,13.20
2016,08,23,00,40,13.20
2016,08,23,00,41,13.20
2016,08,23,00,42,13.20
2016,08,23,00,43,13.10
2016,08,23,00,44,13.10
2016,08,23,00,45,13.10
2016,08,23,00,46,13.10
2016,08,23,00,47,13.10
2016,08,23,00,48,13.10
2016,08,23,00,49,13.10
2016,08,23,00,50,13.10
2016,08,23,00,51,13.10
2016,08,23,00,52,13.10
2016,08,23,00,53,13.10
2016,08,23,00,54,13.10
2016,08,23,00,55,13.10
2016,08,23,00,56,13.00
2016,08,23,00,57,13.00
2016,08,23,00,58,12.90
2016,08,23,00,59,12.90
2016,08,23,01,00,12.90
2016,08,23,01,01,12.80
2016,08,23,01,02,12.80
2016,08,23,01,03,12.80
2016,08,23,01,04,12.80
2016,08,23,01,05,12.80
2016,08,23,01,06,12.80
2016,08,23,01,07,12.80
2016,08,23,01,08,12.80
2016,08,23,01,09,12.80
2016,08,23,01,10,12.70
2016,08,23,01,11,12.70
2016,08,23,01,12,12.70
2016,08,23,01,13,12.70
2016,08,23,01,14,12.70
2016,08,23,01,15,12.70
2016,08,23,01,16,12.70
2016,08,23,01,17,12.70
2016,08,23,01,18,12.70
2016,08,23,01,19,12.70
2016,08,23,01,20,12.70
2016,08,23,01,21,12.80
2016,08,23,01,22,12.80
2016,08,23,01,23,12.80
2016,08,23,01,24,12.80
2016,08,23,01,25,12.80
2016,08,23,01,26,12.80
2016,08,23,01,27,12.80
2016,08,23,01,28,12.70
2016,08,23,01,29,12.70
2016,08,23,01,30,12.70
2016,08,23,01,31,12.70
2016,08,23,01,32,12.70
2016,08,23,01,33,12.60
2016,08,23,01,34,12.60
2016,08,23,01,35,12.60
2016,08,23,01,36,12.50
2016,08,23,01,37,12.50
2016,08,23,01,38,12.50
2016,08,23,01,39,12.40
2016,08,23,01,40,12.40
2016,08,23,01,41,12.40
2016,08,23,01,42,12.40
2016,08,23,01,43,12.40
2016,08,23,01,44,12.30
2016,08,23,01,45,12.30
2016,08,23,01,46,12.30
2016,08,23,01,47,12.30
2016,08,23,01,48,12.30
2016,08,23,01,49,12.20
2016,08,23,01,50,12.20
2016,08,23,01,51,12.20
2016,08,23,01,52,12.20
2016,08,23,01,53,12.20
2016,08,23,01,54,12.10
2016,08,23,01,55,12.10
2016,08,23,01,56,12.10
2016,08,23,01,57,12.10
2016,08,23,01,58,12.10
2016,08,23,01,59,12.00
2016,08,23,02,00,12.00
2016,08,23,02,01,12.00
2016,08,23,02,02,12.00
2016,08,23,02,03,12.00
2016,08,23,02,04,12.10
2016,08,23,02,05,12.10
2016,08,23,02,06,12.10
2016,08,23,02,07,12.10
2016,08,23,02,08,12.10
2016,08,23,02,09,12.10
2016,08,23,02,10,12.10
2016,08,23,02,11,12.10
2016,08,23,02,12,12.10
2016,08,23,02,13,12.10
2016,08,23,02,14,12.10
2016,08,23,02,15,12.00
2016,08,23,02,16,12.00
2016,08,23,02,17,12.00
2016,08,23,02,18,12.00
2016,08,23,02,19,12.00
2016,08,23,02,20,11.90
2016,08,23,02,21,11.90
2016,08,23,02,22,11.90
2016,08,23,02,23,11.90
2016,08,23,02,24,11.90
2016,08,23,02,25,11.90
2016,08,23,02,26,11.90
2016,08,23,02,27,11.90
2016,08,23,02,28,11.90
2016,08,23,02,29,11.90
2016,08,23,02,30,11.90
2016,08,23,02,31,11.90
2016,08,23,02,32,11.90
2016,08,23,02,33,11.90
2016,08,23,02,34,11.90
2016,08,23,02,35,11.90
2016,08,23,02,36,11.80
2016,08,23,02,37,11.80
2016,08,23,02,38,11.80
2016,08,23,02,39,11.80
2016,08,23,02,40,11.80
2016,08,23,02,41,11.80
2016,08,23,02,42,11.80
2016,08,23,02,43,11.80
2016,08,23,02,44,11.80
2016,08,23,02,45,11.70
2016,08,23,02,46,11.70
2016,08,23,02,47,11.70
2016,08,23,02,48,11.70
2016,08,23,02,49,11.70
2016,08,23,02,50,11.70
2016,08,23,02,51,11.70
2016,08,23,02,52,11.70
2016,08,23,02,53,11.70
2016,08,23,02,54,11.70
2016,08,23,02,55,11.70
2016,08,23,02,56,11.70
2016,08,23,02,57,11.70
2016,08,23,02,58,11.70
2016,08,23,02,59,11.70
2016,08,23,03,00,11.70
2016,08,23,03,01,11.70
2016,08,23,03,02,11.70
2016,08,23,03,03,11.70
2016,08,23,03,04,11.70
2016,08,23,03,05,11.70
2016,08,23,03,06,11.60
2016,08,23,03,07,11.60
2016,08,23,03,08,11.60
2016,08,23,03,09,11.60
2016,08,23,03,10,11.60
2016,08,23,03,11,11.60
2016,08,23,03,12,11.50
2016,08,23,03,13,11.50
2016,08,23,03,14,11.50
2016,08,23,03,15,11.40
2016,08,23,03,16,11.40
2016,08,23,03,17,11.40
2016,08,23,03,18,11.40
2016,08,23,03,19,11.40
2016,08,23,03,20,11.40
2016,08,23,03,21,11.40
2016,08,23,03,22,11.40
2016,08,23,03,23,11.40
2016,08,23,03,24,11.30
2016,08,23,03,25,11.30
2016,08,23,03,26,11.40
2016,08,23,03,27,11.40
2016,08,23,03,28,11.40
2016,08,23,03,29,11.40
2016,08,23,03,30,11.40
2016,08,23,03,31,11.40
2016,08,23,03,32,11.40
2016,08,23,03,33,11.40
2016,08,23,03,34,11.40
2016,08,23,03,35,11.40
2016,08,23,03,36,11.40
2016,08,23,03,37,11.40
2016,08,23,03,38,11.40
2016,08,23,03,39,11.30
2016,08,23,03,40,11.30
2016,08,23,03,41,11.30
2016,08,23,03,42,11.30
2016,08,23,03,43,11.30
2016,08,23,03,44,11.30
2016,08,23,03,45,11.30
2016,08,23,03,46,11.30
2016,08,23,03,47,11.30
2016,08,23,03,48,11.30
2016,08,23,03,49,11.30
2016,08,23,03,50,11.30
2016,08,23,03,51,11.30
2016,08,23,03,52,11.30
2016,08,23,03,53,11.30
2016,08,23,03,54,11.30
2016,08,23,03,55,11.30
2016,08,23,03,56,11.20
2016,08,23,03,57,11.20
2016,08,23,03,58,11.20
2016,08,23,03,59,11.20
2016,08,23,04,00,11.20
2016,08,23,04,01,11.20
2016,08,23,04,02,11.20
2016,08,23,04,03,11.10
2016,08,23,04,04,11.10
2016,08,23,04,05,11.10
2016,08,23,04,06,11.10
2016,08,23,04,07,11.10
2016,08,23,04,08,11.10
2016,08,23,04,09,11.10
2016,08,23,04,10,11.00
2016,08,23,04,11,11.00
2016,08,23,04,12,11.00
2016,08,23,04,13,11.00
2016,08,23,04,14,10.90
2016,08,23,04,15,10.90
2016,08,23,04,16,10.90
2016,08,23,04,17,10.90
2016,08,23,04,18,10.90
2016,08,23,04,19,10.90
2016,08,23,04,20,10.80
2016,08,23,04,21,10.80
2016,08,23,04,22,10.80
2016,08,23,04,23,10.80
2016,08,23,04,24,10.80
2016,08,23,04,25,10.80
2016,08,23,04,26,10.80
2016,08,23,04,27,10.80
2016,08,23,04,28,10.80
2016,08,23,04,29,10.80
2016,08,23,04,30,10.80
2016,08,23,04,31,10.80
2016,08,23,04,32,10.80
2016,08,23,04,33,10.80
2016,08,23,04,34,10.80
2016,08,23,04,35,10.80
2016,08,23,04,36,10.80
2016,08,23,04,37,10.80
2016,08,23,04,38,10.80
2016,08,23,04,39,10.80
2016,08,23,04,40,10.80
2016,08,23,04,41,10.80
2016,08,23,04,42,10.80
2016,08,23,04,43,10.80
2016,08,23,04,44,10.80
2016,08,23,04,45,10.80
2016,08,23,04,46,10.80
2016,08,23,04,47,10.80
2016,08,23,04,48,10.80
2016,08,23,04,49,10.80
2016,08,23,04,50,10.80
2016,08,23,04,51,10.80
2016,08,23,04,52,10.70
2016,08,23,04,53,10.70
2016,08,23,04,54,10.70
2016,08,23,04,55,10.70
2016,08,23,04,56,10.70
2016,08,23,04,57,10.70
2016,08,23,04,58,10.70
2016,08,23,04,59,10.70
2016,08,23,05,00,10.70
2016,08,23,05,01,10.70
2016,08,23,05,02,10.70
2016,08,23,05,03,10.70
2016,08,23,05,04,10.70
2016,08,23,05,05,10.70
2016,08,23,05,06,10.70
2016,08,23,05,07,10.70
2016,08,23,05,08,10.70
2016,08,23,05,09,10.80
2016,08,23,05,10,10.80
2016,08,23,05,11,10.80
2016,08,23,05,12,10.80
2016,08,23,05,13,10.80
2016,08,23,05,14,10.80
2016,08,23,05,15,10.80
2016,08,23,05,16,10.80
2016,08,23,05,17,10.80
2016,08,23,05,18,10.80
2016,08,23,05,19,10.80
2016,08,23,05,20,10.90
2016,08,23,05,21,10.90
2016,08,23,05,22,10.90
2016,08,23,05,23,10.90
2016,08,23,05,24,11.00
2016,08,23,05,25,11.00
2016,08,23,05,26,11.10
2016,08,23,05,27,11.10
2016,08,23,05,28,11.20
2016,08,23,05,29,11.20
2016,08,23,05,30,11.20
2016,08,23,05,31,11.20
2016,08,23,05,32,11.30
2016,08,23,05,33,11.30
2016,08,23,05,34,11.30
2016,08,23,05,35,11.30
2016,08,23,05,36,11.30
2016,08,23,05,37,11.30
2016,08,23,05,38,11.30
2016,08,23,05,39,11.30
2016,08,23,05,40,11.30
2016,08,23,05,41,11.30
2016,08,23,05,42,11.30
2016,08,23,05,43,11.30
2016,08,23,05,44,11.30
2016,08,23,05,45,11.30
2016,08,23,05,46,11.30
2016,08,23,05,47,11.30
2016,08,23,05,48,11.30
2016,08,23,05,49,11.30
2016,08,23,05,50,11.30
2016,08,23,05,51,11.30
2016,08,23,05,52,11.40
2016,08,23,05,53,11.40
2016,08,23,05,54,11.40
2016,08,23,05,55,11.50
2016,08,23,05,56,11.60
2016,08,23,05,57,11.60
2016,08,23,05,58,11.70
2016,08,23,05,59,11.80
2016,08,23,06,00,11.80
2016,08,23,06,01,11.80
2016,08,23,06,02,11.90
2016,08,23,06,03,11.90
2016,08,23,06,04,11.90
2016,08,23,06,05,12.00
2016,08,23,06,06,11.90
2016,08,23,06,07,11.90
2016,08,23,06,08,11.90
2016,08,23,06,09,11.80
2016,08,23,06,10,11.80
2016,08,23,06,11,11.80
2016,08,23,06,12,11.70
2016,08,23,06,13,11.70
2016,08,23,06,14,11.70
2016,08,23,06,15,11.70
2016,08,23,06,16,11.70
2016,08,23,06,17,11.70
2016,08,23,06,18,11.80
2016,08,23,06,19,11.80
2016,08,23,06,20,12.00
2016,08,23,06,21,12.10
2016,08,23,06,22,12.20
2016,08,23,06,23,12.30
2016,08,23,06,24,12.40
2016,08,23,06,25,12.50
2016,08,23,06,26,12.60
2016,08,23,06,27,12.60
2016,08,23,06,28,12.60
2016,08,23,06,29,12.70
2016,08,23,06,30,12.70
2016,08,23,06,31,12.80
2016,08,23,06,32,12.80
2016,08,23,06,33,12.90
2016,08,23,06,34,12.90
2016,08,23,06,35,13.00
2016,08,23,06,36,13.00
2016,08,23,06,37,13.10
2016,08,23,06,38,13.10
2016,08,23,06,39,13.10
2016,08,23,06,40,13.20
2016,08,23,06,41,13.20
2016,08,23,06,42,13.20
2016,08,23,06,43,13.30
2016,08,23,06,44,13.30
2016,08,23,06,45,13.40
2016,08,23,06,46,13.40
2016,08,23,06,47,13.50
2016,08,23,06,48,13.50
2016,08,23,06,49,13.50
2016,08,23,06,50,13.60
2016,08,23,06,51,13.60
2016,08,23,06,52,13.60
2016,08,23,06,53,13.60
2016,08,23,06,54,13.60
2016,08,23,06,55,13.60
2016,08,23,06,56,13.60
2016,08,23,06,57,13.70
2016,08,23,06,58,13.70
2016,08,23,06,59,13.70
2016,08,23,07,00,13.70
2016,08,23,07,01,13.70
2016,08,23,07,02,13.70
2016,08,23,07,03,13.70
2016,08,23,07,04,13.80
2016,08,23,07,05,13.80
2016,08,23,07,06,13.80
2016,08,23,07,07,13.80
2016,08,23,07,08,13.80
2016,08,23,07,09,13.80
2016,08,23,07,10,13.80
2016,08,23,07,11,13.80
2016,08,23,07,12,13.80
2016,08,23,07,13,13.80
2016,08,23,07,14,13.90
2016,08,23,07,15,13.90
2016,08,23,07,16,13.90
2016,08,23,07,17,13.90
2016,08,23,07,18,14.00
2016,08,23,07,19,14.00
2016,08,23,07,20,14.10
2016,08,23,07,21,14.10
2016,08,23,07,22,14.10
2016,08,23,07,23,14.20
2016,08,23,07,24,14.20
2016,08,23,07,25,14.20
2016,08,23,07,26,14.20
2016,08,23,07,27,14.30
2016,08,23,07,28,14.30
2016,08,23,07,29,14.30
2016,08,23,07,30,14.40
2016,08,23,07,31,14.50
2016,08,23,07,32,14.60
2016,08,23,07,33,14.60
2016,08,23,07,34,14.60
2016,08,23,07,35,14.60
2016,08,23,07,36,14.70
2016,08,23,07,37,14.60
2016,08,23,07,38,14.70
2016,08,23,07,39,14.70
2016,08,23,07,40,14.80
2016,08,23,07,41,14.80
2016,08,23,07,42,14.80
2016,08,23,07,43,14.90
2016,08,23,07,44,14.90
2016,08,23,07,45,14.90
2016,08,23,07,46,15.00
2016,08,23,07,47,15.00
2016,08,23,07,48,15.10
2016,08,23,07,49,15.20
2016,08,23,07,50,15.30
2016,08,23,07,51,15.40
2016,08,23,07,52,15.50
2016,08,23,07,53,15.60
2016,08,23,07,54,15.70
2016,08,23,07,55,15.70
2016,08,23,07,56,15.80
2016,08,23,07,57,15.90
2016,08,23,07,58,16.00
2016,08,23,07,59,16.10
2016,08,23,08,00,16.20
2016,08,23,08,01,16.30
2016,08,23,08,02,16.40
2016,08,23,08,03,16.50
2016,08,23,08,04,16.50
2016,08,23,08,05,16.60
2016,08,23,08,06,16.60
2016,08,23,08,07,16.60
2016,08,23,08,08,16.60
2016,08,23,08,09,16.60
2016,08,23,08,10,16.60
2016,08,23,08,11,16.70
2016,08,23,08,12,16.70
2016,08,23,08,13,16.70
2016,08,23,08,14,16.70
2016,08,23,08,15,16.70
2016,08,23,08,16,16.80
2016,08,23,08,17,16.80
2016,08,23,08,18,16.80
2016,08,23,08,19,16.80
2016,08,23,08,20,16.80
2016,08,23,08,21,16.90
2016,08,23,08,22,16.90
2016,08,23,08,23,16.90
2016,08,23,08,24,16.90
2016,08,23,08,25,16.90
2016,08,23,08,26,16.90
2016,08,23,08,27,17.00
2016,08,23,08,28,17.00
2016,08,23,08,29,17.00
2016,08,23,08,30,17.10
2016,08,23,08,31,17.10
2016,08,23,08,32,17.10
2016,08,23,08,33,17.10
2016,08,23,08,34,17.10
2016,08,23,08,35,17.20
2016,08,23,08,36,17.20
2016,08,23,08,37,17.20
2016,08,23,08,38,17.20
2016,08,23,08,39,17.20
2016,08,23,08,40,17.20
2016,08,23,08,41,17.20
2016,08,23,08,42,17.30
2016,08,23,08,43,17.30
2016,08,23,08,44,17.30
2016,08,23,08,45,17.30
2016,08,23,08,46,17.30
2016,08,23,08,47,17.30
2016,08,23,08,48,17.30
2016,08,23,08,49,17.30
2016,08,23,08,50,17.30
2016,08,23,08,51,17.30
2016,08,23,08,52,17.30
2016,08,23,08,53,17.30
2016,08,23,08,54,17.20
2016,08,23,08,55,17.20
2016,08,23,08,56,17.20
2016,08,23,08,57,17.20
2016,08,23,08,58,17.30
2016,08,23,08,59,17.30
2016,08,23,09,00,17.30
2016,08,23,09,01,17.30
2016,08,23,09,02,17.30
2016,08,23,09,03,17.30
2016,08,23,09,04,17.30
2016,08,23,09,05,17.40
2016,08,23,09,06,17.40
2016,08,23,09,07,17.40
2016,08,23,09,08,17.40
2016,08,23,09,09,17.40
2016,08,23,09,10,17.40
2016,08,23,09,11,17.50
2016,08,23,09,12,17.50
2016,08,23,09,13,17.60
2016,08,23,09,14,17.60
2016,08,23,09,15,17.60
2016,08,23,09,16,17.60
2016,08,23,09,17,17.60
2016,08,23,09,18,17.60
2016,08,23,09,19,17.60
2016,08,23,09,20,17.70
2016,08,23,09,21,17.70
2016,08,23,09,22,17.70
2016,08,23,09,23,17.80
2016,08,23,09,24,17.80
2016,08,23,09,25,17.80
2016,08,23,09,26,17.80
2016,08,23,09,27,17.80
2016,08,23,09,28,17.80
2016,08,23,09,29,17.80
2016,08,23,09,30,17.80
2016,08,23,09,31,17.80
2016,08,23,09,32,17.90
2016,08,23,09,33,17.90
2016,08,23,09,34,18.00
2016,08,23,09,35,18.00
2016,08,23,09,36,18.00
2016,08,23,09,37,18.10
2016,08,23,09,38,18.10
2016,08,23,09,39,18.10
2016,08,23,09,40,18.00
2016,08,23,09,41,18.00
2016,08,23,09,42,18.00
2016,08,23,09,43,18.00
2016,08,23,09,44,18.00
2016,08,23,09,45,18.00
2016,08,23,09,46,18.00
2016,08,23,09,47,18.00
2016,08,23,09,48,18.00
2016,08,23,09,49,18.00
2016,08,23,09,50,18.00
2016,08,23,09,51,18.00
2016,08,23,09,52,18.10
2016,08,23,09,53,18.10
2016,08,23,09,54,18.20
2016,08,23,09,55,18.20
2016,08,23,09,56,18.20
2016,08,23,09,57,18.20
2016,08,23,09,58,18.20
2016,08,23,09,59,18.20
2016,08,23,10,00,18.20
2016,08,23,10,01,18.20
2016,08,23,10,02,18.20
2016,08,23,10,03,18.30
2016,08,23,10,04,18.40
2016,08,23,10,05,18.40
2016,08,23,10,06,18.50
2016,08,23,10,07,18.50
2016,08,23,10,08,18.50
2016,08,23,10,09,18.60
2016,08,23,10,10,18.50
2016,08,23,10,11,18.50
2016,08,23,10,12,18.50
2016,08,23,10,13,18.50
2016,08,23,10,14,18.40
2016,08,23,10,15,18.50
2016,08,23,10,16,18.40
2016,08,23,10,17,18.40
2016,08,23,10,18,18.40
2016,08,23,10,19,18.40
2016,08,23,10,20,18.40
2016,08,23,10,21,18.30
2016,08,23,10,22,18.30
2016,08,23,10,23,18.40
2016,08,23,10,24,18.40
2016,08,23,10,25,18.50
2016,08,23,10,26,18.50
2016,08,23,10,27,18.60
2016,08,23,10,28,18.50
2016,08,23,10,29,18.50
2016,08,23,10,30,18.50
2016,08,23,10,31,18.50
2016,08,23,10,32,18.60
2016,08,23,10,33,18.60
2016,08,23,10,34,18.60
2016,08,23,10,35,18.70
2016,08,23,10,36,18.70
2016,08,23,10,37,18.70
2016,08,23,10,38,18.80
2016,08,23,10,39,18.80
2016,08,23,10,40,18.80
2016,08,23,10,41,18.70
2016,08,23,10,42,18.80
2016,08,23,10,43,18.80
2016,08,23,10,44,18.70
2016,08,23,10,45,18.70
2016,08,23,10,46,18.70
2016,08,23,10,47,18.70
2016,08,23,10,48,18.60
2016,08,23,10,49,18.60
2016,08,23,10,50,18.60
2016,08,23,10,51,18.60
2016,08,23,10,52,18.60
2016,08,23,10,53,18.70
2016,08,23,10,54,18.70
2016,08,23,10,55,18.70
2016,08,23,10,56,18.80
2016,08,23,10,57,18.80
2016,08,23,10,58,18.80
2016,08,23,10,59,18.80
2016,08,23,11,00,18.80
2016,08,23,11,01,18.80
2016,08,23,11,02,18.80
2016,08,23,11,03,18.80
2016,08,23,11,04,18.80
2016,08,23,11,05,18.80
2016,08,23,11,06,18.80
2016,08,23,11,07,18.90
2016,08,23,11,08,19.00
2016,08,23,11,09,19.10
2016,08,23,11,10,19.10
2016,08,23,11,11,19.20
2016,08,23,11,12,19.10
2016,08,23,11,13,19.10
2016,08,23,11,14,19.10
2016,08,23,11,15,19.10
2016,08,23,11,16,19.00
2016,08,23,11,17,19.00
2016,08,23,11,18,18.90
2016,08,23,11,19,18.90
2016,08,23,11,20,18.90
2016,08,23,11,21,19.00
2016,08,23,11,22,19.00
2016,08,23,11,23,19.10
2016,08,23,11,24,19.10
2016,08,23,11,25,19.20
2016,08,23,11,26,19.30
2016,08,23,11,27,19.30
2016,08,23,11,28,19.30
2016,08,23,11,29,19.40
2016,08,23,11,30,19.40
2016,08,23,11,31,19.50
2016,08,23,11,32,19.40
2016,08,23,11,33,19.40
2016,08,23,11,34,19.40
2016,08,23,11,35,19.50
2016,08,23,11,36,19.50
2016,08,23,11,37,19.60
2016,08,23,11,38,19.60
2016,08,23,11,39,19.70
2016,08,23,11,40,19.70
2016,08,23,11,41,19.80
2016,08,23,11,42,19.80
2016,08,23,11,43,19.90
2016,08,23,11,44,19.90
2016,08,23,11,45,19.90
2016,08,23,11,46,19.90
2016,08,23,11,47,19.80
2016,08,23,11,48,19.70
2016,08,23,11,49,19.60
2016,08,23,11,50,19.60
2016,08,23,11,51,19.50
2016,08,23,11,52,19.50
2016,08,23,11,53,19.50
2016,08,23,11,54,19.50
2016,08,23,11,55,19.50
2016,08,23,11,56,19.50
2016,08,23,11,57,19.50
2016,08,23,11,58,19.50
2016,08,23,11,59,19.50
2016,08,23,12,00,19.60
2016,08,23,12,01,19.60
2016,08,23,12,02,19.60
2016,08,23,12,03,19.60
2016,08,23,12,04,19.60
2016,08,23,12,05,19.60
2016,08,23,12,06,19.70
2016,08,23,12,07,19.70
2016,08,23,12,08,19.70
2016,08,23,12,09,19.70
2016,08,23,12,10,19.80
2016,08,23,12,11,19.80
2016,08,23,12,12,19.80
2016,08,23,12,13,19.90
2016,08,23,12,14,19.90
2016,08,23,12,15,19.90
2016,08,23,12,16,19.90
2016,08,23,12,17,19.90
2016,08,23,12,18,19.90
2016,08,23,12,19,20.00
2016,08,23,12,20,20.00
2016,08,23,12,21,20.00
2016,08,23,12,22,20.00
2016,08,23,12,23,20.00
2016,08,23,12,24,20.10
2016,08,23,12,25,20.10
2016,08,23,12,26,20.20
2016,08,23,12,27,20.30
2016,08,23,12,28,20.30
2016,08,23,12,29,20.30
2016,08,23,12,30,20.30
2016,08,23,12,31,20.30
2016,08,23,12,32,20.30
2016,08,23,12,33,20.40
2016,08,23,12,34,20.40
2016,08,23,12,35,20.40
2016,08,23,12,36,20.40
2016,08,23,12,37,20.30
2016,08,23,12,38,20.30
2016,08,23,12,39,20.20
2016,08,23,12,40,20.10
2016,08,23,12,41,20.10
2016,08,23,12,42,20.10
2016,08,23,12,43,20.10
2016,08,23,12,44,20.00
2016,08,23,12,45,20.00
2016,08,23,12,46,20.00
2016,08,23,12,47,20.00
2016,08,23,12,48,20.10
2016,08,23,12,49,20.00
2016,08,23,12,50,20.00
2016,08,23,12,51,20.00
2016,08,23,12,52,20.00
2016,08,23,12,53,20.00
2016,08,23,12,54,20.00
2016,08,23,12,55,20.00
2016,08,23,12,56,20.10
2016,08,23,12,57,20.10
2016,08,23,12,58,20.10
2016,08,23,12,59,20.10
2016,08,23,13,00,20.10
2016,08,23,13,01,20.10
2016,08,23,13,02,20.20
2016,08,23,13,03,20.30
2016,08,23,13,04,20.30
2016,08,23,13,05,20.40
2016,08,23,13,06,20.50
2016,08,23,13,07,20.60
2016,08,23,13,08,20.70
2016,08,23,13,09,20.70
2016,08,23,13,10,20.70
2016,08,23,13,11,20.70
2016,08,23,13,12,20.70
2016,08,23,13,13,20.70
2016,08,23,13,14,20.70
2016,08,23,13,15,20.70
2016,08,23,13,16,20.70
2016,08,23,13,17,20.70
2016,08,23,13,18,20.70
2016,08,23,13,19,20.70
2016,08,23,13,20,20.60
2016,08,23,13,21,20.60
2016,08,23,13,22,20.60
2016,08,23,13,23,20.60
2016,08,23,13,24,20.70
2016,08,23,13,25,20.80
2016,08,23,13,26,20.90
2016,08,23,13,27,21.00
2016,08,23,13,28,21.10
2016,08,23,13,29,21.20
2016,08,23,13,30,21.20
2016,08,23,13,31,21.20
2016,08,23,13,32,21.20
2016,08,23,13,33,21.20
2016,08,23,13,34,21.10
2016,08,23,13,35,21.10
2016,08,23,13,36,21.10
2016,08,23,13,37,21.10
2016,08,23,13,38,21.10
2016,08,23,13,39,21.10
2016,08,23,13,40,21.10
2016,08,23,13,41,21.20
2016,08,23,13,42,21.20
2016,08,23,13,43,21.20
2016,08,23,13,44,21.20
2016,08,23,13,45,21.20
2016,08,23,13,46,21.20
2016,08,23,13,47,21.20
2016,08,23,13,48,21.20
2016,08,23,13,49,21.20
2016,08,23,13,50,21.20
2016,08,23,13,51,21.30
2016,08,23,13,52,21.30
2016,08,23,13,53,21.40
2016,08,23,13,54,21.50
2016,08,23,13,55,21.50
2016,08,23,13,56,21.60
2016,08,23,13,57,21.50
2016,08,23,13,58,21.50
2016,08,23,13,59,21.40
2016,08,23,14,00,21.40
2016,08,23,14,01,21.40
2016,08,23,14,02,21.50
2016,08,23,14,03,21.50
2016,08,23,14,04,21.60
2016,08,23,14,05,21.60
2016,08,23,14,06,21.60
2016,08,23,14,07,21.60
2016,08,23,14,08,21.70
2016,08,23,14,09,21.70
2016,08,23,14,10,21.80
2016,08,23,14,11,21.80
2016,08,23,14,12,21.80
2016,08,23,14,13,21.80
2016,08,23,14,14,21.80
2016,08,23,14,15,21.80
2016,08,23,14,16,21.70
2016,08,23,14,17,21.70
2016,08,23,14,18,21.80
2016,08,23,14,19,21.80
2016,08,23,14,20,21.80
2016,08,23,14,21,21.80
2016,08,23,14,22,21.90
2016,08,23,14,23,22.00
2016,08,23,14,24,22.00
2016,08,23,14,25,22.10
2016,08,23,14,26,22.10
2016,08,23,14,27,22.20
2016,08,23,14,28,22.30
2016,08,23,14,29,22.30
2016,08,23,14,30,22.30
2016,08,23,14,31,22.30
2016,08,23,14,32,22.30
2016,08,23,14,33,22.30
2016,08,23,14,34,22.40
2016,08,23,14,35,22.40
2016,08,23,14,36,22.40
2016,08,23,14,37,22.40
2016,08,23,14,38,22.50
2016,08,23,14,39,22.60
2016,08,23,14,40,22.60
2016,08,23,14,41,22.60
2016,08,23,14,42,22.60
2016,08,23,14,43,22.50
2016,08,23,14,44,22.50
2016,08,23,14,45,22.40
2016,08,23,14,46,22.40
2016,08,23,14,47,22.40
2016,08,23,14,48,22.50
2016,08,23,14,49,22.50
2016,08,23,14,50,22.60
2016,08,23,14,51,22.70
2016,08,23,14,52,22.70
2016,08,23,14,53,22.70
2016,08,23,14,54,22.70
2016,08,23,14,55,22.70
2016,08,23,14,56,22.70
2016,08,23,14,57,22.70
2016,08,23,14,58,22.70
2016,08,23,14,59,22.70
2016,08,23,15,00,22.80
2016,08,23,15,01,22.80
2016,08,23,15,02,22.80
2016,08,23,15,03,22.80
2016,08,23,15,04,22.80
2016,08,23,15,05,22.90
2016,08,23,15,06,23.00
2016,08,23,15,07,23.10
2016,08,23,15,08,23.10
2016,08,23,15,09,23.20
2016,08,23,15,10,23.30
2016,08,23,15,11,23.40
2016,08,23,15,12,23.50
2016,08,23,15,13,23.60
2016,08,23,15,14,23.60
2016,08,23,15,15,23.60
2016,08,23,15,16,23.60
2016,08,23,15,17,23.60
2016,08,23,15,18,23.60
2016,08,23,15,19,23.60
2016,08,23,15,20,23.60
2016,08,23,15,21,23.60
2016,08,23,15,22,23.60
2016,08,23,15,23,23.70
2016,08,23,15,24,23.70
2016,08,23,15,25,23.70
2016,08,23,15,26,23.70
2016,08,23,15,27,23.70
2016,08,23,15,28,23.70
2016,08,23,15,29,23.70
2016,08,23,15,30,23.60
2016,08,23,15,31,23.60
2016,08,23,15,32,23.60
2016,08,23,15,33,23.70
2016,08,23,15,34,23.70
2016,08,23,15,35,23.70
2016,08,23,15,36,23.80
2016,08,23,15,37,23.90
2016,08,23,15,38,24.00
2016,08,23,15,39,24.00
2016,08,23,15,40,23.90
2016,08,23,15,41,23.90
2016,08,23,15,42,23.80
2016,08,23,15,43,23.80
2016,08,23,15,44,23.80
2016,08,23,15,45,23.80
2016,08,23,15,46,23.90
2016,08,23,15,47,23.90
2016,08,23,15,48,24.00
2016,08,23,15,49,24.00
2016,08,23,15,50,24.00
2016,08,23,15,51,24.00
2016,08,23,15,52,24.10
2016,08,23,15,53,24.10
2016,08,23,15,54,24.10
2016,08,23,15,55,24.20
2016,08,23,15,56,24.20
2016,08,23,15,57,24.30
2016,08,23,15,58,24.30
2016,08,23,15,59,24.30
2016,08,23,16,00,24.30
2016,08,23,16,01,24.20
2016,08,23,16,02,24.20
2016,08,23,16,03,24.10
2016,08,23,16,04,24.00
2016,08,23,16,05,24.00
2016,08,23,16,06,23.90
2016,08,23,16,07,23.80
2016,08,23,16,08,23.80
2016,08,23,16,09,23.70
2016,08,23,16,10,23.70
2016,08,23,16,11,23.70
2016,08,23,16,12,23.70
2016,08,23,16,13,23.70
2016,08,23,16,14,23.70
2016,08,23,16,15,23.70
2016,08,23,16,16,23.80
2016,08,23,16,17,23.80
2016,08,23,16,18,23.80
2016,08,23,16,19,24.00
2016,08,23,16,20,24.10
2016,08,23,16,21,24.20
2016,08,23,16,22,24.30
2016,08,23,16,23,24.40
2016,08,23,16,24,24.50
2016,08,23,16,25,24.60
2016,08,23,16,26,24.70
2016,08,23,16,27,24.80
2016,08,23,16,28,24.80
2016,08,23,16,29,24.90
2016,08,23,16,30,24.90
2016,08,23,16,31,25.00
2016,08,23,16,32,25.10
2016,08,23,16,33,25.20
2016,08,23,16,34,25.20
2016,08,23,16,35,25.30
2016,08,23,16,36,25.30
2016,08,23,16,37,25.30
2016,08,23,16,38,25.30
2016,08,23,16,39,25.20
2016,08,23,16,40,25.10
2016,08,23,16,41,25.10
2016,08,23,16,42,25.00
2016,08,23,16,43,24.90
2016,08,23,16,44,24.80
2016,08,23,16,45,24.70
2016,08,23,16,46,24.60
2016,08,23,16,47,24.50
2016,08,23,16,48,24.40
2016,08,23,16,49,24.30
2016,08,23,16,50,24.20
2016,08,23,16,51,24.10
2016,08,23,16,52,24.10
2016,08,23,16,53,24.20
2016,08,23,16,54,24.30
2016,08,23,16,55,24.40
2016,08,23,16,56,24.40
2016,08,23,16,57,24.40
2016,08,23,16,58,24.40
2016,08,23,16,59,24.40
2016,08,23,17,00,24.40
2016,08,23,17,01,24.30
2016,08,23,17,02,24.20
2016,08,23,17,03,24.10
2016,08,23,17,04,24.00
2016,08,23,17,05,23.90
2016,08,23,17,06,23.90
2016,08,23,17,07,24.00
2016,08,23,17,08,24.00
2016,08,23,17,09,24.00
2016,08,23,17,10,23.90
2016,08,23,17,11,23.80
2016,08,23,17,12,23.80
2016,08,23,17,13,23.80
2016,08,23,17,14,23.70
2016,08,23,17,15,23.70
2016,08,23,17,16,23.60
2016,08,23,17,17,23.60
2016,08,23,17,18,23.60
2016,08,23,17,19,23.50